ACA480 CYYZ-CYUL

Flight info

Callsign ACA480
Flight time 0h 48m
Altitude 33000
Route DEDKI5 MIGLO HABBS7
Aircraft B77W/H-SDE1E2E3FGHIJ2J3J4J5M1RWXY/LB1D1

Departure

Time 2026-05-06 17:00
Airport Toronto Pearson International Airport (CYYZ)

Arrival

Time 2026-05-06 17:48
Airport Montreal / Pierre Elliott Trudeau International Airport (CYUL)
Time Latitude Longitude Altitude Speed Heading
2026-05-06 16:48 43.67571 -79.61171 576 ft 0 kts
2026-05-06 16:52 43.67564 -79.61171 573 ft 4 kts
2026-05-06 16:53 43.67541 -79.61173 574 ft 2 kts
2026-05-06 16:53 43.67516 -79.61174 570 ft 4 kts 355°
2026-05-06 16:53 43.67489 -79.61169 572 ft 4 kts 345°
2026-05-06 16:53 43.67464 -79.61157 574 ft 4 kts 334°
2026-05-06 16:54 43.67448 -79.61145 574 ft 1 kts 330°
2026-05-06 16:54 43.67446 -79.61144 571 ft 1 kts 330°
2026-05-06 16:56 43.67449 -79.61146 574 ft 1 kts 330°
2026-05-06 16:56 43.67463 -79.61167 574 ft 5 kts 303°
2026-05-06 16:56 43.67471 -79.61235 566 ft 9 kts 253°
2026-05-06 16:56 43.67402 -79.61305 572 ft 16 kts 204°
2026-05-06 16:57 43.67295 -79.61362 567 ft 10 kts 189°
2026-05-06 16:57 43.67233 -79.61342 569 ft 9 kts 164°
2026-05-06 16:57 43.67207 -79.61345 569 ft 0 kts 195°
2026-05-06 16:57 43.67201 -79.61350 569 ft 3 kts 208°
2026-05-06 16:58 43.67171 -79.61379 574 ft 8 kts 217°
2026-05-06 16:58 43.67122 -79.61443 569 ft 11 kts 235°
2026-05-06 16:58 43.67130 -79.61519 573 ft 13 kts 310°
2026-05-06 16:58 43.67135 -79.61525 573 ft 0 kts 313°
2026-05-06 16:59 43.67222 -79.61646 569 ft 43 kts 316°
2026-05-06 16:59 43.67642 -79.62190 576 ft 120 kts 317°
2026-05-06 16:59 43.68404 -79.63184 647 ft 172 kts 315°
2026-05-06 16:59 43.69307 -79.64390 1154 ft 192 kts 318°
2026-05-06 17:00 43.70335 -79.65711 1758 ft 207 kts 317°
2026-05-06 17:00 43.71436 -79.66972 2455 ft 217 kts 331°
2026-05-06 17:00 43.73044 -79.67352 2763 ft 247 kts 13°
2026-05-06 17:00 43.74538 -79.66136 3477 ft 260 kts 49°
2026-05-06 17:01 43.75267 -79.63850 4323 ft 265 kts 83°
2026-05-06 17:01 43.75301 -79.61295 5105 ft 273 kts 94°
2026-05-06 17:01 43.75178 -79.58646 5981 ft 280 kts 95°
2026-05-06 17:01 43.75061 -79.55918 6759 ft 289 kts 95°
2026-05-06 17:02 43.74976 -79.53107 7566 ft 296 kts 94°
2026-05-06 17:02 43.74921 -79.50219 8385 ft 303 kts 93°
2026-05-06 17:02 43.74887 -79.47267 9217 ft 310 kts 93°
2026-05-06 17:02 43.74877 -79.44257 9983 ft 316 kts 90°
2026-05-06 17:03 43.75213 -79.41194 10398 ft 333 kts 81°
2026-05-06 17:03 43.75528 -79.37946 10590 ft 360 kts 90°
2026-05-06 17:03 43.75466 -79.34359 10890 ft 381 kts 98°
2026-05-06 17:03 43.75147 -79.30668 11595 ft 393 kts 102°
2026-05-06 17:04 43.74694 -79.26902 12508 ft 399 kts 106°
2026-05-06 17:04 43.74083 -79.23134 13503 ft 405 kts 108°
2026-05-06 17:04 43.73444 -79.19300 14412 ft 412 kts 108°
2026-05-06 17:04 43.72801 -79.15404 15318 ft 420 kts 107°
2026-05-06 17:05 43.72158 -79.11429 16212 ft 427 kts 107°
2026-05-06 17:05 43.71507 -79.07383 17112 ft 434 kts 107°
2026-05-06 17:05 43.70898 -79.03302 17981 ft 443 kts 103°
2026-05-06 17:05 43.70545 -78.99027 18791 ft 451 kts 98°
2026-05-06 17:06 43.70316 -78.94658 19569 ft 458 kts 97°
2026-05-06 17:06 43.70096 -78.90230 20316 ft 465 kts 97°
2026-05-06 17:06 43.69856 -78.85746 21080 ft 471 kts 97°
2026-05-06 17:06 43.69592 -78.81205 21833 ft 477 kts 98°
2026-05-06 17:07 43.69397 -78.76591 22527 ft 485 kts 92°
2026-05-06 17:07 43.69674 -78.71891 23207 ft 495 kts 82°
2026-05-06 17:07 43.70414 -78.67268 23843 ft 501 kts 73°
2026-05-06 17:07 43.71628 -78.62743 24506 ft 503 kts 66°
2026-05-06 17:08 43.73024 -78.58283 25180 ft 506 kts 65°
2026-05-06 17:08 43.74456 -78.53811 25814 ft 510 kts 64°
2026-05-06 17:08 43.75896 -78.49302 26418 ft 515 kts 65°
2026-05-06 17:08 43.77339 -78.44725 27013 ft 519 kts 65°
2026-05-06 17:09 43.78770 -78.40115 27597 ft 523 kts 65°
2026-05-06 17:09 43.80201 -78.35448 28178 ft 527 kts 66°
2026-05-06 17:09 43.81631 -78.30750 28746 ft 532 kts 66°
2026-05-06 17:09 43.83066 -78.26016 29367 ft 535 kts 66°
2026-05-06 17:10 43.84489 -78.21314 29918 ft 538 kts 66°
2026-05-06 17:10 43.85935 -78.16529 30409 ft 539 kts 66°
2026-05-06 17:10 43.87384 -78.11730 30958 ft 539 kts 66°
2026-05-06 17:10 43.88828 -78.06941 31523 ft 538 kts 66°
2026-05-06 17:11 43.90268 -78.02159 32074 ft 538 kts 66°
2026-05-06 17:11 43.91648 -77.97569 32570 ft 538 kts 66°
2026-05-06 17:11 43.93094 -77.92752 32941 ft 542 kts 66°
2026-05-06 17:12 43.96005 -77.83025 32900 ft 543 kts 66°
2026-05-06 17:12 43.98868 -77.73418 32902 ft 535 kts 67°
2026-05-06 17:13 44.01704 -77.63867 32905 ft 535 kts 67°
2026-05-06 17:13 44.04536 -77.54297 32901 ft 536 kts 67°
2026-05-06 17:14 44.07415 -77.44737 32909 ft 537 kts 64°
2026-05-06 17:14 44.11097 -77.35784 32910 ft 536 kts 54°
2026-05-06 17:15 44.15212 -77.27115 32907 ft 537 kts 54°
2026-05-06 17:15 44.19327 -77.18393 32883 ft 538 kts 55°
2026-05-06 17:16 44.23399 -77.09613 32893 ft 539 kts 55°
2026-05-06 17:16 44.27429 -77.00852 32913 ft 540 kts 56°
2026-05-06 17:17 44.31397 -76.92198 32902 ft 540 kts 56°
2026-05-06 17:17 44.35439 -76.83368 32887 ft 538 kts 56°
2026-05-06 17:18 44.39459 -76.74561 32887 ft 536 kts 56°
2026-05-06 17:18 44.43468 -76.65755 32908 ft 536 kts 56°
2026-05-06 17:19 44.47474 -76.56926 32902 ft 536 kts 56°
2026-05-06 17:19 44.51446 -76.48142 32887 ft 536 kts 56°
2026-05-06 17:20 44.55431 -76.39305 32905 ft 536 kts 56°
2026-05-06 17:20 44.59379 -76.30521 32841 ft 520 kts 57°
2026-05-06 17:20 44.61276 -76.26291 32849 ft 504 kts 57°
2026-05-06 17:21 44.63121 -76.22170 32867 ft 494 kts 57°
2026-05-06 17:21 44.66090 -76.13510 32897 ft 494 kts 70°
2026-05-06 17:22 44.68482 -76.04504 32896 ft 496 kts 69°
2026-05-06 17:22 44.71037 -75.95678 32929 ft 497 kts 69°
2026-05-06 17:23 44.73503 -75.86568 32887 ft 498 kts 71°
2026-05-06 17:23 44.75873 -75.77490 32876 ft 496 kts 71°
2026-05-06 17:24 44.78273 -75.68384 32878 ft 497 kts 71°
2026-05-06 17:24 44.80691 -75.59252 32873 ft 496 kts 71°
2026-05-06 17:25 44.83099 -75.50124 32883 ft 496 kts 71°
2026-05-06 17:25 44.85538 -75.41083 32888 ft 497 kts 70°
2026-05-06 17:26 44.88124 -75.32041 32868 ft 496 kts 70°
2026-05-06 17:26 44.90686 -75.23050 32874 ft 495 kts 70°
2026-05-06 17:27 44.93205 -75.14100 32307 ft 484 kts 71°
2026-05-06 17:27 44.94434 -75.09708 31526 ft 479 kts 71°
2026-05-06 17:27 44.95652 -75.05342 30644 ft 477 kts 71°
2026-05-06 17:27 44.96866 -75.00989 29766 ft 476 kts 71°
2026-05-06 17:28 44.98015 -74.96863 28986 ft 471 kts 71°
2026-05-06 17:28 44.99303 -74.92649 28231 ft 465 kts 65°
2026-05-06 17:28 45.00830 -74.88664 27470 ft 460 kts 61°
2026-05-06 17:28 45.02450 -74.84804 26749 ft 454 kts 59°
2026-05-06 17:29 45.04063 -74.80994 26077 ft 448 kts 59°
2026-05-06 17:29 45.05631 -74.77203 25409 ft 442 kts 60°
2026-05-06 17:29 45.07147 -74.73449 24757 ft 436 kts 60°
2026-05-06 17:29 45.08626 -74.69723 24133 ft 431 kts 60°
2026-05-06 17:30 45.10079 -74.66044 23506 ft 426 kts 60°
2026-05-06 17:30 45.11495 -74.62458 22780 ft 421 kts 60°
2026-05-06 17:30 45.12957 -74.58882 22070 ft 416 kts 58°
2026-05-06 17:30 45.14483 -74.55414 21324 ft 413 kts 57°
2026-05-06 17:31 45.16018 -74.51990 20629 ft 409 kts 57°
2026-05-06 17:31 45.17530 -74.48590 19978 ft 405 kts 57°
2026-05-06 17:31 45.19013 -74.45211 19335 ft 401 kts 58°
2026-05-06 17:31 45.20476 -74.41854 18719 ft 398 kts 58°
2026-05-06 17:32 45.21903 -74.38564 18124 ft 394 kts 59°
2026-05-06 17:32 45.23331 -74.35257 17419 ft 391 kts 59°
2026-05-06 17:32 45.24742 -74.31987 16770 ft 386 kts 59°
2026-05-06 17:32 45.26135 -74.28757 16149 ft 381 kts 59°
2026-05-06 17:33 45.27509 -74.25569 15551 ft 377 kts 59°
2026-05-06 17:33 45.28866 -74.22416 14942 ft 373 kts 58°
2026-05-06 17:33 45.30214 -74.19282 14349 ft 369 kts 58°
2026-05-06 17:33 45.31544 -74.16187 13773 ft 365 kts 58°
2026-05-06 17:34 45.32875 -74.13088 13316 ft 368 kts 58°
2026-05-06 17:34 45.34195 -74.10009 13075 ft 362 kts 58°
2026-05-06 17:34 45.35499 -74.06965 12831 ft 358 kts 58°
2026-05-06 17:34 45.36970 -74.04187 12594 ft 347 kts 43°
2026-05-06 17:35 45.38743 -74.01936 12438 ft 338 kts 38°
2026-05-06 17:35 45.40453 -73.99848 12288 ft 332 kts 38°
2026-05-06 17:35 45.42169 -73.97689 12075 ft 328 kts 39°
2026-05-06 17:36 45.45520 -73.93352 11532 ft 326 kts 40°
2026-05-06 17:36 45.47190 -73.91173 11268 ft 324 kts 40°
2026-05-06 17:36 45.48851 -73.89006 11009 ft 323 kts 40°
2026-05-06 17:36 45.50511 -73.86838 10761 ft 321 kts 40°
2026-05-06 17:37 45.51596 -73.85418 10628 ft 319 kts 40°
2026-05-06 17:37 45.53231 -73.83279 10349 ft 319 kts 40°
2026-05-06 17:37 45.54859 -73.81150 10098 ft 316 kts 41°
2026-05-06 17:37 45.56463 -73.79049 9900 ft 311 kts 41°
2026-05-06 17:38 45.58062 -73.76954 9497 ft 312 kts 41°
2026-05-06 17:38 45.59658 -73.74861 9178 ft 308 kts 41°
2026-05-06 17:38 45.61207 -73.72827 9088 ft 297 kts 41°
2026-05-06 17:38 45.62684 -73.70885 9012 ft 287 kts 41°
2026-05-06 17:39 45.64129 -73.68984 8885 ft 278 kts 41°
2026-05-06 17:39 45.65536 -73.67133 8686 ft 272 kts 40°
2026-05-06 17:39 45.66913 -73.65322 8448 ft 267 kts 40°
2026-05-06 17:39 45.68271 -73.63532 8178 ft 264 kts 41°
2026-05-06 17:40 45.69620 -73.61753 7888 ft 261 kts 40°
2026-05-06 17:40 45.70937 -73.60016 7545 ft 254 kts 41°
2026-05-06 17:40 45.72212 -73.58367 7029 ft 251 kts 40°
2026-05-06 17:40 45.73277 -73.56394 6437 ft 247 kts 72°
2026-05-06 17:41 45.73319 -73.54024 5873 ft 237 kts 108°
2026-05-06 17:41 45.72506 -73.52033 5192 ft 233 kts 135°
2026-05-06 17:41 45.71185 -73.50710 4480 ft 233 kts 159°
2026-05-06 17:41 45.69617 -73.50271 3843 ft 227 kts 182°
2026-05-06 17:42 45.68136 -73.50755 3293 ft 220 kts 204°
2026-05-06 17:42 45.66711 -73.51671 3110 ft 225 kts 206°
2026-05-06 17:42 45.65303 -73.52603 2993 ft 223 kts 206°
2026-05-06 17:42 45.63957 -73.53481 2961 ft 201 kts 207°
2026-05-06 17:43 45.62837 -73.54553 2980 ft 191 kts 221°
2026-05-06 17:43 45.61818 -73.55754 2954 ft 190 kts 221°
2026-05-06 17:43 45.60811 -73.56968 2954 ft 189 kts 225°
2026-05-06 17:43 45.59868 -73.58266 2992 ft 188 kts 226°
2026-05-06 17:44 45.58936 -73.59594 3003 ft 190 kts 228°
2026-05-06 17:44 45.58003 -73.60947 2887 ft 191 kts 226°
2026-05-06 17:44 45.57044 -73.62245 2681 ft 188 kts 225°
2026-05-06 17:44 45.56135 -73.63487 2420 ft 175 kts 224°
2026-05-06 17:45 45.55238 -73.64614 2018 ft 168 kts 220°
2026-05-06 17:45 45.54384 -73.65650 1685 ft 153 kts 220°
2026-05-06 17:45 45.53607 -73.66663 1524 ft 155 kts 222°
2026-05-06 17:45 45.52818 -73.67729 1521 ft 159 kts 224°
2026-05-06 17:46 45.51998 -73.68838 1243 ft 162 kts 221°
2026-05-06 17:46 45.51176 -73.69885 898 ft 152 kts 220°
2026-05-06 17:46 45.50438 -73.70823 659 ft 135 kts 220°
2026-05-06 17:46 45.49757 -73.71706 517 ft 135 kts 222°
2026-05-06 17:47 45.49057 -73.72630 359 ft 138 kts 223°
2026-05-06 17:47 45.48354 -73.73557 193 ft 136 kts 223°
2026-05-06 17:47 45.47666 -73.74459 120 ft 126 kts 223°
2026-05-06 17:47 45.47134 -73.75159 120 ft 82 kts 222°
2026-05-06 17:48 45.46811 -73.75550 117 ft 48 kts 204°
2026-05-06 17:48 45.46551 -73.75646 121 ft 32 kts 192°
2026-05-06 17:48 45.46407 -73.75692 119 ft 11 kts 192°
2026-05-06 17:48 45.46328 -73.75715 115 ft 12 kts 189°
2026-05-06 17:49 45.46241 -73.75724 116 ft 12 kts 180°
2026-05-06 17:49 45.46154 -73.75718 113 ft 13 kts 177°
2026-05-06 17:49 45.46073 -73.75670 113 ft 15 kts 114°
2026-05-06 17:49 45.46065 -73.75494 115 ft 22 kts 87°
2026-05-06 17:50 45.46039 -73.75318 112 ft 21 kts 115°
2026-05-06 17:50 45.46008 -73.75173 118 ft 9 kts 92°
2026-05-06 17:50 45.45982 -73.75137 117 ft 6 kts 176°
2026-05-06 17:50 45.45962 -73.75136 114 ft 5 kts 180°
2026-05-06 17:51 45.45947 -73.75136 114 ft 1 kts 180°
2026-05-06 17:51 45.45940 -73.75137 114 ft 1 kts 179°
2026-05-06 17:51 45.45932 -73.75137 114 ft 2 kts 181°
2026-05-06 17:51 45.45927 -73.75137 114 ft 1 kts 181°
2026-05-06 17:52 45.45926 -73.75137 113 ft 0 kts 181°